Regional Weather Roundup
Issued by NWS

Home | Current Version | Previous Version | Text Only | Print | Product List | Glossary On
Versions: 1 2 3 4 5 6 7 8 9 10 11 12 13 14 15 16 17 18 19 20 21 22 23 24 25 26 27 28 29 30 31 32 33 34 35 36 37 38 39 40 41 42 43 44 45 46 47 48 49 50
000
ASCA44 KEWX 301820
RWRMX

LATIN AMERICA AND CARIBBEAN REGIONAL WEATHER ROUNDUP
NATIONAL WEATHER SERVICE AUSTIN/SAN ANTONIO TX
100 PM CDT SAT MAY 30 2015

NOTE: "FAIR" INDICATED FEW OR NO CLOUDS BELOW 12,000 FEET WITH NO
SIGNIFICANT WEATHER AND/OR OBSTRUCTIONS TO VISIBILITY.

BAJA CALIFORNIA

CITY           SKY/WX    TMP DP  RH WIND       PRES   REMARKS
LORETO         SUNNY     86  75  70 NE9       29.88S HX  95
LA PAZ         SUNNY     93  50  22 NW12      29.89F HX  90
MEXICALI       MOSUNNY   88  48  25 SE6       29.90R
S.J. DEL CABO  SUNNY     97  57  26 SE12      29.88  HX  95
TIJUANA        CLOUDY    64  54  68 W6        30.01  FOG

NORTHWESTERN MEXICO

CITY           SKY/WX    TMP DP  RH WIND       PRES   REMARKS
CULIACAN       SUNNY     95  64  36 W7        29.86F HX  97
DURANGO        SUNNY     77  45  31 E3        30.23F
GUAYMAS        SUNNY     93  63  36 S12       29.84  HX  94
HERMOSILLO     SUNNY     97  41  14 CALM      29.93F HX  92
CD. JUAREZ     MOSUNNY   82  55  39 SE29      30.12F
LOS MOCHIS     SUNNY     90  61  37 CALM      29.88F
OBREGON        SUNNY     95  50  21 SW6       29.85F HX  92

NORTHEASTERN MEXICO

CITY           SKY/WX    TMP DP  RH WIND       PRES   REMARKS
CHIHUAHUA      PTSUNNY   84  45  24 SE12      30.13S
MATAMOROS      PTSUNNY   88  77  70 E14       30.01S HX 100
MONCLOVA         N/A    N/A N/A N/A MISG        N/A
MONTERREY      PTSUNNY   82  66  57 SE8       30.01R
NUEVO LAREDO   PTSUNNY   88  70  55 SE6       29.99F HX  92
PIEDRAS NEGRAS LGT RAIN  72  70  94 NW14G25   30.16R VSB 1
REYNOSA        MOSUNNY   82  68  61 SE9       29.99F
SALTILLO       MOSUNNY   81  63  54 N9        30.20S
TORREON        SUNNY     86  52  30 E7        30.08
CD. VICTORIA   CLOUDY    86  68  54 E8        30.00R

WESTERN MEXICO

CITY           SKY/WX    TMP DP  RH WIND       PRES   REMARKS
AGUASCALIENTES CLOUDY    66  50  55 NE12      30.27F
COLIMA         PTSUNNY   81  68  65 SW9       30.01F
DEL BAJIO      CLOUDY    70  57  64 S3        30.30S
GUADALAJARA    CLOUDY    73  55  53 N5        30.20
MANZANILLO     PTSUNNY   84  77  79 S6        29.85  HX  94
MAZATLAN       SUNNY     90  61  37 W17       29.82F
P. VALLARTA    CLOUDY    86  66  51 SW5       29.87F
URUAPAN        CLOUDY    68  61  77 S9        30.18F
ZACATECAS      CLOUDY    68  48  49 E12       30.30R

CENTRAL MEXICO

CITY           SKY/WX    TMP DP  RH WIND       PRES   REMARKS
CUERNAVACA     CLOUDY    79  54  41 CALM      30.14F
MEXICO CITY    CLOUDY    68  48  49 SE3       30.31F
MORELIA        CLOUDY    68  57  68 CALM      30.24F
POZA RICA      CLOUDY    84  75  74 CALM      30.00R HX  92
PUEBLA         CLOUDY    68  50  52 S10       30.32F
QUERETARO      CLOUDY    68  54  60 E12       30.30S
S. LUIS POTOSI CLOUDY    70  50  49 E3        30.26
TAMPICO        PTSUNNY   86  72  62 E7        29.99S HX  92
TOLUCA         CLOUDY    64  45  48 CALM      30.37  FOG

SOUTHERN MEXICO

CITY           SKY/WX    TMP DP  RH WIND       PRES   REMARKS
ACAPULCO       CLOUDY    86  75  70 SE13      29.91F HX  95
B. DE HUATULCO   N/A    N/A N/A N/A MISG        N/A
OAXACA         CLOUDY    75  52  43 CALM      30.20F
P. ESCONDIDO   CLOUDY    79  75  89 NW9       30.02S
VERACRUZ       MOSUNNY   86  70  58 E10       29.94F HX  90
ZIHUATANEJO    PTSUNNY   88  75  66 SW7       29.90  HX  97

YUCATAN PENINSULA

CITY           SKY/WX    TMP DP  RH WIND       PRES   REMARKS
CAMPECHE       MOSUNNY   93  64  38 E12       29.89F HX  95
CANCUN         MOSUNNY   88  70  55 SE12      29.97F HX  92
CHETUMAL       PTSUNNY   88  75  66 E9        29.95F HX  97
CD. DEL CARMEN CLOUDY    91  72  52 E9        29.91F HX  98
COZUMEL        MOSUNNY   86  70  58 SE5       29.97F HX  90
MERIDA         PTSUNNY   95  66  38 E8        29.93F HX  98
MINATITLAN     MOSUNNY   86  68  54 N12       29.89F
TAPACHULA      CLOUDY    88  79  74 NW12      29.91F HX 102
TUX. GUTIERREZ MOSUNNY   86  61  42 E6        29.95F
VILLAHERMOSA   PTSUNNY   91  75  59 CALM      29.92F HX 102

CENTRAL AMERICA

CITY           SKY/WX    TMP DP  RH WIND       PRES   REMARKS
BELIZE CITY    LGT RAIN  88  77  70 E10       29.93F HX 100
MANAGUA        MOCLDY    90  68  48 E12       29.83S HX  93

CARIBBEAN

CITY           SKY/WX    TMP DP  RH WIND       PRES   REMARKS
ARUBA          MOSUNNY   86  77  74 E23       29.86S HX  97
CURACAO        MOSUNNY   88  77  70 E12       29.89F HX 100
KINGSTON       MOSUNNY   88  79  74 SE23      29.92S HX 102
NASSAU         LGT RAIN  84  72  65 E3        30.04F
SAN JUAN       PTSUNNY   81  72  74 NE9       29.98F
SANTO DOMINGO  PTSUNNY   86  73  66 CALM      29.97S HX  93
ST. CROIX      MOSUNNY   84  73  70 SE9       29.99F HX  91
ST. KITTS      MOSUNNY   88  73  62 E10       29.97S HX  96
ST. THOMAS     CLOUDY    86  75  70 SE8       29.98  HX  95

$$



USA.gov is the U.S. government's official web portal to all federal, state and local government web resources and services.